Time,TemperatureF,DewpointF,PressureIn,WindDirection,WindDirectionDegrees,WindSpeedMPH,WindSpeedGustMPH,Humidity,HourlyPrecipIn,Conditions,Clouds,dailyrainin,SoftwareType,DateUTC
2013-06-03 00:04:00,58.8,46.0,29.98,SSE,157,0.0,0.0,60,0.00,,,0.00,meteohub,2013-06-03 05:04:00,
2013-06-03 00:09:00,58.6,46.0,29.98,SSE,157,0.0,0.0,60,0.00,,,0.00,meteohub,2013-06-03 05:09:00,
2013-06-03 00:14:00,58.6,46.2,29.98,SSE,157,0.0,0.0,61,0.00,,,0.00,meteohub,2013-06-03 05:14:00,
2013-06-03 00:19:00,58.6,46.2,29.98,SSE,160,0.0,0.0,61,0.00,,,0.00,meteohub,2013-06-03 05:19:00,
2013-06-03 00:24:00,58.6,46.9,29.98,SSE,160,0.0,0.0,63,0.00,,,0.00,meteohub,2013-06-03 05:24:00,
2013-06-03 00:29:00,58.6,47.3,29.98,SSE,159,0.0,0.0,64,0.00,,,0.00,meteohub,2013-06-03 05:29:00,
2013-06-03 00:35:00,58.5,47.1,29.98,SSE,166,0.0,0.0,64,0.00,,,0.00,meteohub,2013-06-03 05:35:00,
2013-06-03 00:40:00,58.5,46.8,29.98,South,180,0.0,0.0,63,0.00,,,0.00,meteohub,2013-06-03 05:40:00,
2013-06-03 00:45:00,58.5,47.1,29.98,SSE,166,0.0,0.0,64,0.00,,,0.00,meteohub,2013-06-03 05:45:00,
2013-06-03 00:50:00,58.5,46.8,29.98,SSE,158,0.0,0.0,63,0.00,,,0.00,meteohub,2013-06-03 05:50:00,
2013-06-03 00:55:00,58.5,47.7,29.98,SSE,162,0.0,0.0,65,0.00,,,0.00,meteohub,2013-06-03 05:55:00,
2013-06-03 01:01:00,58.5,46.9,29.98,South,170,0.0,0.0,64,0.00,,,0.00,meteohub,2013-06-03 06:01:00,
2013-06-03 01:06:00,58.5,46.6,29.98,SSE,165,0.0,0.0,63,0.00,,,0.00,meteohub,2013-06-03 06:06:00,
2013-06-03 01:11:00,58.3,46.9,29.98,SSE,166,0.0,0.0,64,0.00,,,0.00,meteohub,2013-06-03 06:11:00,
2013-06-03 01:17:00,58.3,46.8,29.98,SSE,164,0.0,0.0,64,0.00,,,0.00,meteohub,2013-06-03 06:17:00,
2013-06-03 01:22:00,58.1,46.6,29.98,SSE,163,0.0,0.0,64,0.00,,,0.00,meteohub,2013-06-03 06:22:00,
2013-06-03 01:27:00,58.1,47.1,29.98,SSE,168,0.0,0.0,65,0.00,,,0.00,meteohub,2013-06-03 06:27:00,
2013-06-03 01:33:00,57.9,46.6,29.98,SSE,165,0.0,0.0,64,0.00,,,0.00,meteohub,2013-06-03 06:33:00,
2013-06-03 01:38:00,57.9,46.9,29.98,SSE,158,0.0,0.0,65,0.00,,,0.00,meteohub,2013-06-03 06:38:00,
2013-06-03 01:43:00,57.7,46.9,29.98,SSE,159,0.0,0.0,65,0.00,,,0.00,meteohub,2013-06-03 06:43:00,
2013-06-03 01:48:00,57.6,46.9,29.98,SSE,158,0.0,0.0,65,0.00,,,0.00,meteohub,2013-06-03 06:48:00,
2013-06-03 01:53:00,57.6,46.4,29.98,SSE,155,0.0,0.0,64,0.00,,,0.00,meteohub,2013-06-03 06:53:00,
2013-06-03 01:58:00,57.4,46.6,29.98,South,184,0.0,0.0,65,0.00,,,0.00,meteohub,2013-06-03 06:58:00,
2013-06-03 02:04:00,57.4,46.4,29.98,SSW,206,0.0,0.0,65,0.00,,,0.00,meteohub,2013-06-03 07:04:00,
2013-06-03 02:09:00,57.2,46.8,29.98,SSW,197,0.0,0.0,66,0.00,,,0.00,meteohub,2013-06-03 07:09:00,
2013-06-03 02:14:00,56.8,46.9,29.98,South,182,0.0,0.0,67,0.00,,,0.00,meteohub,2013-06-03 07:14:00,
2013-06-03 02:19:00,56.8,46.9,29.98,South,180,0.0,0.0,67,0.00,,,0.00,meteohub,2013-06-03 07:19:00,
2013-06-03 02:24:00,56.7,47.1,29.98,South,181,0.0,0.0,68,0.00,,,0.00,meteohub,2013-06-03 07:24:00,
2013-06-03 02:29:00,56.5,47.3,29.98,South,183,0.0,0.0,69,0.00,,,0.00,meteohub,2013-06-03 07:29:00,
2013-06-03 02:34:00,56.3,47.3,29.98,South,172,0.0,0.0,69,0.00,,,0.00,meteohub,2013-06-03 07:34:00,
2013-06-03 02:39:00,56.1,47.5,29.98,South,175,0.0,0.0,70,0.00,,,0.00,meteohub,2013-06-03 07:39:00,
2013-06-03 02:45:00,55.9,47.7,29.98,South,189,0.0,2.0,71,0.00,,,0.00,meteohub,2013-06-03 07:45:00,
2013-06-03 02:50:00,55.9,47.5,29.98,SSW,199,0.0,2.0,71,0.00,,,0.00,meteohub,2013-06-03 07:50:00,
2013-06-03 02:55:00,55.8,47.3,29.98,SSE,161,0.0,2.0,71,0.00,,,0.00,meteohub,2013-06-03 07:55:00,
2013-06-03 03:00:00,55.6,47.7,29.98,SSW,200,0.0,0.0,72,0.00,,,0.00,meteohub,2013-06-03 08:00:00,
2013-06-03 03:05:00,55.4,47.5,29.98,SSW,200,0.0,0.0,72,0.00,,,0.00,meteohub,2013-06-03 08:05:00,
2013-06-03 03:11:00,55.2,47.5,29.98,SSE,157,0.0,0.0,72,0.00,,,0.00,meteohub,2013-06-03 08:11:00,
2013-06-03 03:17:00,55.0,47.8,29.98,SSW,208,0.0,0.0,73,0.00,,,0.00,meteohub,2013-06-03 08:17:00,
2013-06-03 03:22:00,55.0,48.0,30.01,South,178,0.0,0.0,74,0.00,,,0.00,meteohub,2013-06-03 08:22:00,
2013-06-03 03:27:00,54.9,48.0,30.01,SSE,164,0.0,0.0,74,0.00,,,0.00,meteohub,2013-06-03 08:27:00,
2013-06-03 03:32:00,54.9,48.2,30.01,South,182,0.0,0.0,75,0.00,,,0.00,meteohub,2013-06-03 08:32:00,
2013-06-03 03:37:00,54.7,47.8,29.98,South,182,0.0,0.0,74,0.00,,,0.00,meteohub,2013-06-03 08:37:00,
2013-06-03 03:42:00,54.7,48.2,29.98,SSW,198,0.0,0.0,75,0.00,,,0.00,meteohub,2013-06-03 08:42:00,
2013-06-03 03:47:00,54.7,47.7,29.98,SW,214,0.0,0.0,74,0.00,,,0.00,meteohub,2013-06-03 08:47:00,
2013-06-03 03:52:00,54.5,48.0,30.01,SSW,213,0.0,0.0,75,0.00,,,0.00,meteohub,2013-06-03 08:52:00,
2013-06-03 03:57:00,54.5,48.2,30.01,South,186,0.0,2.0,76,0.00,,,0.00,meteohub,2013-06-03 08:57:00,
2013-06-03 04:02:00,54.3,48.0,30.01,SSW,204,0.0,2.0,76,0.00,,,0.00,meteohub,2013-06-03 09:02:00,
2013-06-03 04:07:00,54.1,48.2,30.01,South,183,0.0,2.0,77,0.00,,,0.00,meteohub,2013-06-03 09:07:00,
2013-06-03 04:12:00,54.0,48.4,30.01,SSW,192,0.0,0.0,78,0.00,,,0.00,meteohub,2013-06-03 09:12:00,
2013-06-03 04:17:00,54.0,48.2,30.01,South,170,0.0,0.0,78,0.00,,,0.00,meteohub,2013-06-03 09:17:00,
2013-06-03 04:22:00,53.8,48.0,29.98,South,190,0.0,0.0,78,0.00,,,0.00,meteohub,2013-06-03 09:22:00,
2013-06-03 04:27:00,53.6,48.4,29.98,South,183,0.0,0.0,79,0.00,,,0.00,meteohub,2013-06-03 09:27:00,
2013-06-03 04:32:00,53.6,48.6,29.98,South,176,0.0,0.0,80,0.00,,,0.00,meteohub,2013-06-03 09:32:00,
2013-06-03 04:37:00,53.4,48.4,30.01,SE,146,0.0,0.0,80,0.00,,,0.00,meteohub,2013-06-03 09:37:00,
2013-06-03 04:42:00,53.4,48.4,30.01,South,190,0.0,0.0,80,0.00,,,0.00,meteohub,2013-06-03 09:42:00,
2013-06-03 04:47:00,53.4,48.4,30.01,South,187,0.0,0.0,80,0.00,,,0.00,meteohub,2013-06-03 09:47:00,
2013-06-03 04:52:00,53.4,48.4,30.01,South,185,0.0,0.0,80,0.00,,,0.00,meteohub,2013-06-03 09:52:00,
2013-06-03 04:57:00,53.2,48.2,30.01,South,175,0.0,0.0,80,0.00,,,0.00,meteohub,2013-06-03 09:57:00,
2013-06-03 05:02:00,53.2,48.2,30.01,South,172,0.0,0.0,80,0.00,,,0.00,meteohub,2013-06-03 10:02:00,
2013-06-03 05:07:00,53.1,48.6,30.01,SSW,199,0.0,0.0,81,0.00,,,0.00,meteohub,2013-06-03 10:07:00,
2013-06-03 05:12:00,53.2,48.6,30.01,South,181,0.0,0.0,81,0.00,,,0.00,meteohub,2013-06-03 10:12:00,
2013-06-03 05:17:00,53.2,48.6,30.01,South,171,0.0,0.0,81,0.00,,,0.00,meteohub,2013-06-03 10:17:00,
2013-06-03 05:22:00,53.2,48.6,30.01,SW,214,0.0,0.0,81,0.00,,,0.00,meteohub,2013-06-03 10:22:00,
2013-06-03 05:27:00,53.2,48.4,30.01,SSW,198,0.0,0.0,81,0.00,,,0.00,meteohub,2013-06-03 10:27:00,
2013-06-03 05:32:00,53.1,48.7,30.01,South,171,0.0,0.0,82,0.00,,,0.00,meteohub,2013-06-03 10:32:00,
2013-06-03 05:37:00,53.1,48.7,30.01,South,173,0.0,0.0,82,0.00,,,0.00,meteohub,2013-06-03 10:37:00,
2013-06-03 05:42:00,53.1,49.1,30.01,South,184,0.0,0.0,83,0.00,,,0.00,meteohub,2013-06-03 10:42:00,
2013-06-03 05:47:00,53.1,48.7,30.01,SE,146,0.0,0.0,82,0.00,,,0.00,meteohub,2013-06-03 10:47:00,
2013-06-03 05:52:00,52.9,48.9,30.01,South,191,0.0,0.0,83,0.00,,,0.00,meteohub,2013-06-03 10:52:00,
2013-06-03 05:57:00,52.9,48.9,30.01,South,186,0.0,0.0,83,0.00,,,0.00,meteohub,2013-06-03 10:57:00,
2013-06-03 06:02:00,52.9,48.9,30.01,South,183,0.0,0.0,83,0.00,,,0.00,meteohub,2013-06-03 11:02:00,
2013-06-03 06:07:00,52.9,48.9,30.01,South,183,0.0,0.0,83,0.00,,,0.00,meteohub,2013-06-03 11:07:00,
2013-06-03 06:12:00,52.9,49.3,30.01,South,182,0.0,0.0,84,0.00,,,0.00,meteohub,2013-06-03 11:12:00,
2013-06-03 06:17:00,53.1,49.5,30.01,South,180,0.0,0.0,84,0.00,,,0.00,meteohub,2013-06-03 11:17:00,
2013-06-03 06:22:00,53.1,49.5,30.01,South,185,0.0,0.0,84,0.00,,,0.00,meteohub,2013-06-03 11:22:00,
2013-06-03 06:27:00,53.1,49.5,30.01,South,184,0.0,0.0,84,0.00,,,0.00,meteohub,2013-06-03 11:27:00,
2013-06-03 06:32:00,53.2,49.5,30.01,SSW,198,0.0,0.0,84,0.00,,,0.00,meteohub,2013-06-03 11:32:00,
2013-06-03 06:37:00,53.2,49.8,30.01,South,175,0.0,0.0,85,0.00,,,0.00,meteohub,2013-06-03 11:37:00,
2013-06-03 06:42:00,53.4,49.8,30.01,SSE,166,0.0,0.0,85,0.00,,,0.00,meteohub,2013-06-03 11:42:00,
2013-06-03 06:47:00,53.6,49.8,30.01,South,189,0.0,0.0,85,0.00,,,0.00,meteohub,2013-06-03 11:47:00,
2013-06-03 06:52:00,53.6,50.0,30.01,SSW,196,0.0,0.0,85,0.00,,,0.00,meteohub,2013-06-03 11:52:00,
2013-06-03 06:57:00,53.8,50.0,30.01,SSE,157,0.0,0.0,85,0.00,,,0.00,meteohub,2013-06-03 11:57:00,
2013-06-03 07:02:00,54.0,50.2,30.01,South,187,0.0,0.0,85,0.00,,,0.00,meteohub,2013-06-03 12:02:00,
2013-06-03 07:07:00,54.1,50.2,30.01,SSE,154,0.0,0.0,85,0.00,,,0.00,meteohub,2013-06-03 12:07:00,
2013-06-03 07:12:00,54.1,50.5,30.01,SW,216,0.0,0.0,85,0.00,,,0.00,meteohub,2013-06-03 12:12:00,
2013-06-03 07:17:00,54.5,50.5,30.01,SSE,166,0.0,0.0,84,0.00,,,0.00,meteohub,2013-06-03 12:17:00,
2013-06-03 07:22:00,54.7,50.7,29.98,SSW,194,0.0,0.0,84,0.00,,,0.00,meteohub,2013-06-03 12:22:00,
2013-06-03 07:27:00,55.0,50.7,29.98,SSE,167,0.0,2.0,83,0.00,,,0.00,meteohub,2013-06-03 12:27:00,
2013-06-03 07:32:00,55.2,50.4,29.98,SSW,203,0.0,2.0,82,0.00,,,0.00,meteohub,2013-06-03 12:32:00,
2013-06-03 07:37:00,55.6,50.5,29.98,SSE,149,0.0,2.0,82,0.00,,,0.00,meteohub,2013-06-03 12:37:00,
2013-06-03 07:42:00,55.9,50.9,29.98,South,175,0.0,0.0,82,0.00,,,0.00,meteohub,2013-06-03 12:42:00,
2013-06-03 07:47:00,56.1,51.3,29.98,SSE,166,0.0,0.0,82,0.00,,,0.00,meteohub,2013-06-03 12:47:00,
2013-06-03 07:52:00,56.5,51.1,29.98,South,185,0.0,0.0,81,0.00,,,0.00,meteohub,2013-06-03 12:52:00,
2013-06-03 07:57:00,56.7,50.9,29.98,South,175,0.0,0.0,80,0.00,,,0.00,meteohub,2013-06-03 12:57:00,
2013-06-03 08:02:00,57.2,51.3,29.98,SSE,165,0.0,0.0,80,0.00,,,0.00,meteohub,2013-06-03 13:02:00,
2013-06-03 08:07:00,57.4,50.9,29.98,South,179,0.0,0.0,78,0.00,,,0.00,meteohub,2013-06-03 13:07:00,
2013-06-03 08:12:00,57.9,50.7,29.98,SSE,154,0.0,0.0,77,0.00,,,0.00,meteohub,2013-06-03 13:12:00,
2013-06-03 08:17:00,58.3,51.1,29.98,South,187,0.0,0.0,77,0.00,,,0.00,meteohub,2013-06-03 13:17:00,
2013-06-03 08:22:00,58.8,51.3,29.98,South,186,0.0,0.0,76,0.00,,,0.00,meteohub,2013-06-03 13:22:00,
2013-06-03 08:28:00,59.5,50.7,29.98,SSW,193,0.0,0.0,74,0.00,,,0.00,meteohub,2013-06-03 13:28:00,
2013-06-03 08:33:00,60.1,51.1,29.98,South,177,0.0,0.0,74,0.00,,,0.00,meteohub,2013-06-03 13:33:00,
2013-06-03 08:38:00,60.4,50.9,29.98,South,182,0.0,0.0,73,0.00,,,0.00,meteohub,2013-06-03 13:38:00,
2013-06-03 08:43:00,60.8,51.1,29.98,South,173,0.0,0.0,73,0.00,,,0.00,meteohub,2013-06-03 13:43:00,
2013-06-03 08:48:00,61.2,51.4,29.98,SSW,192,0.0,0.0,73,0.00,,,0.00,meteohub,2013-06-03 13:48:00,
2013-06-03 08:53:00,61.7,51.4,29.98,SSW,198,0.0,2.0,72,0.00,,,0.00,meteohub,2013-06-03 13:53:00,
2013-06-03 08:59:00,62.1,51.3,29.98,SSE,158,0.0,2.0,71,0.00,,,0.00,meteohub,2013-06-03 13:59:00,
2013-06-03 09:04:00,62.2,51.8,29.98,SSE,150,0.0,2.0,71,0.00,,,0.00,meteohub,2013-06-03 14:04:00,
2013-06-03 09:09:00,62.8,52.2,29.98,SSE,157,0.0,0.0,71,0.00,,,0.00,meteohub,2013-06-03 14:09:00,
2013-06-03 09:14:00,63.0,51.4,29.98,SSE,157,0.0,0.0,69,0.00,,,0.00,meteohub,2013-06-03 14:14:00,
2013-06-03 09:20:00,63.1,50.7,29.98,SSE,165,0.0,0.0,67,0.00,,,0.00,meteohub,2013-06-03 14:20:00,
2013-06-03 09:25:00,63.7,50.9,29.98,South,186,0.0,0.0,66,0.00,,,0.00,meteohub,2013-06-03 14:25:00,
2013-06-03 09:30:00,63.9,51.1,29.98,South,169,0.0,0.0,66,0.00,,,0.00,meteohub,2013-06-03 14:30:00,
2013-06-03 09:35:00,64.2,50.2,29.95,South,171,0.0,0.0,63,0.00,,,0.00,meteohub,2013-06-03 14:35:00,
2013-06-03 09:40:00,64.2,49.8,29.95,SSW,198,0.0,0.0,62,0.00,,,0.00,meteohub,2013-06-03 14:40:00,
2013-06-03 09:46:00,64.4,49.8,29.95,SE,144,0.0,0.0,62,0.00,,,0.00,meteohub,2013-06-03 14:46:00,
2013-06-03 09:51:00,64.8,49.3,29.95,South,188,0.0,0.0,60,0.00,,,0.00,meteohub,2013-06-03 14:51:00,
2013-06-03 09:56:00,65.1,49.8,29.95,SSE,165,0.0,0.0,60,0.00,,,0.00,meteohub,2013-06-03 14:56:00,
2013-06-03 10:01:00,65.5,48.7,29.95,South,185,0.0,15.0,58,0.00,,,0.00,meteohub,2013-06-03 15:01:00,
2013-06-03 10:06:00,65.5,48.9,29.95,South,190,0.0,15.0,58,0.00,,,0.00,meteohub,2013-06-03 15:06:00,
2013-06-03 10:11:00,65.8,48.7,29.95,South,179,0.0,15.0,57,0.00,,,0.00,meteohub,2013-06-03 15:11:00,
2013-06-03 10:16:00,66.0,48.9,29.95,SSE,149,0.0,6.0,57,0.00,,,0.00,meteohub,2013-06-03 15:16:00,
2013-06-03 10:21:00,66.0,49.1,29.95,South,181,0.0,2.0,57,0.00,,,0.00,meteohub,2013-06-03 15:21:00,
2013-06-03 10:26:00,66.2,49.3,29.95,South,170,0.0,0.0,57,0.00,,,0.00,meteohub,2013-06-03 15:26:00,
2013-06-03 10:32:00,66.4,49.1,29.95,SSE,165,0.0,2.0,56,0.00,,,0.00,meteohub,2013-06-03 15:32:00,
2013-06-03 10:37:00,66.7,50.0,29.95,South,181,0.0,2.0,57,0.00,,,0.00,meteohub,2013-06-03 15:37:00,
2013-06-03 10:42:00,67.1,48.6,29.95,South,171,0.0,0.0,54,0.00,,,0.00,meteohub,2013-06-03 15:42:00,
2013-06-03 10:47:00,67.3,48.2,29.95,South,173,0.0,0.0,53,0.00,,,0.00,meteohub,2013-06-03 15:47:00,
2013-06-03 10:52:00,67.3,48.6,29.95,SSE,166,0.0,0.0,53,0.00,,,0.00,meteohub,2013-06-03 15:52:00,
2013-06-03 10:57:00,67.1,48.7,29.95,SSE,168,0.0,0.0,53,0.00,,,0.00,meteohub,2013-06-03 15:57:00,
2013-06-03 11:02:00,66.7,47.7,29.95,SE,142,0.0,0.0,52,0.00,,,0.00,meteohub,2013-06-03 16:02:00,
2013-06-03 11:07:00,66.9,48.9,29.95,South,172,0.0,0.0,53,0.00,,,0.00,meteohub,2013-06-03 16:07:00,
2013-06-03 11:12:00,67.3,48.7,29.95,ESE,122,0.0,0.0,53,0.00,,,0.00,meteohub,2013-06-03 16:12:00,
2013-06-03 11:17:00,67.5,47.7,29.95,South,179,0.0,0.0,50,0.00,,,0.00,meteohub,2013-06-03 16:17:00,
2013-06-03 11:22:00,67.6,47.7,29.92,SSE,158,0.0,0.0,49,0.00,,,0.00,meteohub,2013-06-03 16:22:00,
2013-06-03 11:27:00,68.0,47.7,29.92,South,170,0.0,2.0,49,0.00,,,0.00,meteohub,2013-06-03 16:27:00,
2013-06-03 11:32:00,68.0,48.7,29.92,SE,146,0.0,2.0,50,0.00,,,0.00,meteohub,2013-06-03 16:32:00,
2013-06-03 11:38:00,68.2,48.7,29.92,SSE,163,0.0,0.0,50,0.00,,,0.00,meteohub,2013-06-03 16:38:00,
2013-06-03 11:43:00,68.4,47.8,29.92,SSE,151,0.0,0.0,49,0.00,,,0.00,meteohub,2013-06-03 16:43:00,
2013-06-03 11:48:00,68.4,47.7,29.92,South,188,0.0,0.0,48,0.00,,,0.00,meteohub,2013-06-03 16:48:00,
2013-06-03 11:53:00,68.4,47.3,29.92,SSE,152,0.0,13.0,48,0.00,,,0.00,meteohub,2013-06-03 16:53:00,
2013-06-03 11:58:00,68.5,48.0,29.92,SSE,151,0.0,13.0,49,0.00,,,0.00,meteohub,2013-06-03 16:58:00,
2013-06-03 12:03:00,68.5,46.4,29.92,SE,144,0.0,13.0,46,0.00,,,0.00,meteohub,2013-06-03 17:03:00,
2013-06-03 12:08:00,68.7,47.8,29.92,SE,146,0.0,0.0,48,0.00,,,0.00,meteohub,2013-06-03 17:08:00,
2013-06-03 12:13:00,69.1,47.3,29.92,South,181,0.0,0.0,47,0.00,,,0.00,meteohub,2013-06-03 17:13:00,
2013-06-03 12:18:00,69.1,46.9,29.92,SSW,196,0.0,0.0,46,0.00,,,0.00,meteohub,2013-06-03 17:18:00,
2013-06-03 12:24:00,69.4,47.8,29.92,SE,140,0.0,0.0,47,0.00,,,0.00,meteohub,2013-06-03 17:24:00,
2013-06-03 12:29:00,69.4,48.6,29.92,SE,125,0.0,0.0,48,0.00,,,0.00,meteohub,2013-06-03 17:29:00,
2013-06-03 12:34:00,69.6,48.4,29.89,SSE,165,0.0,0.0,47,0.00,,,0.00,meteohub,2013-06-03 17:34:00,
2013-06-03 12:39:00,70.0,46.9,29.89,SSE,154,0.0,0.0,45,0.00,,,0.00,meteohub,2013-06-03 17:39:00,
2013-06-03 12:45:00,70.0,46.9,29.89,South,186,0.0,0.0,44,0.00,,,0.00,meteohub,2013-06-03 17:45:00,
2013-06-03 12:50:00,70.3,47.5,29.89,SSE,168,0.0,0.0,45,0.00,,,0.00,meteohub,2013-06-03 17:50:00,
2013-06-03 12:55:00,70.7,47.8,29.89,SSE,158,0.0,0.0,45,0.00,,,0.00,meteohub,2013-06-03 17:55:00,
2013-06-03 13:00:00,70.5,46.4,29.89,South,171,0.0,0.0,43,0.00,,,0.00,meteohub,2013-06-03 18:00:00,
2013-06-03 13:05:00,70.3,47.5,29.89,SSE,164,0.0,0.0,44,0.00,,,0.00,meteohub,2013-06-03 18:05:00,
2013-06-03 13:11:00,70.5,47.7,29.89,SSE,157,0.0,2.0,44,0.00,,,0.00,meteohub,2013-06-03 18:11:00,
2013-06-03 13:16:00,71.1,47.8,29.89,SSE,156,0.0,2.0,44,0.00,,,0.00,meteohub,2013-06-03 18:16:00,
2013-06-03 13:21:00,71.1,48.6,29.89,SSE,155,0.0,0.0,45,0.00,,,0.00,meteohub,2013-06-03 18:21:00,
2013-06-03 13:26:00,71.4,48.4,29.89,SSE,154,0.0,0.0,44,0.00,,,0.00,meteohub,2013-06-03 18:26:00,
2013-06-03 13:31:00,71.6,47.5,29.89,SSE,153,4.0,0.0,43,0.00,,,0.00,meteohub,2013-06-03 18:31:00,
2013-06-03 13:36:00,71.8,47.7,29.86,SSE,153,0.0,15.0,43,0.00,,,0.00,meteohub,2013-06-03 18:36:00,
2013-06-03 13:41:00,72.0,47.8,29.86,SSE,151,2.0,15.0,43,0.00,,,0.00,meteohub,2013-06-03 18:41:00,
2013-06-03 13:47:00,72.3,47.7,29.86,South,190,0.0,15.0,42,0.00,,,0.00,meteohub,2013-06-03 18:47:00,
2013-06-03 13:52:00,72.3,47.5,29.86,SW,218,0.0,4.0,42,0.00,,,0.00,meteohub,2013-06-03 18:52:00,
2013-06-03 13:57:00,72.0,47.5,29.86,SSE,161,0.0,4.0,42,0.00,,,0.00,meteohub,2013-06-03 18:57:00,
2013-06-03 14:02:00,72.1,48.0,29.86,SSE,156,8.0,0.0,42,0.00,,,0.00,meteohub,2013-06-03 19:02:00,
2013-06-03 14:07:00,72.3,48.4,29.86,South,185,0.0,12.0,43,0.00,,,0.00,meteohub,2013-06-03 19:07:00,
2013-06-03 14:12:00,72.3,48.0,29.86,SSW,192,0.0,12.0,42,0.00,,,0.00,meteohub,2013-06-03 19:12:00,
2013-06-03 14:17:00,72.7,48.0,29.86,South,171,0.0,12.0,42,0.00,,,0.00,meteohub,2013-06-03 19:17:00,
2013-06-03 14:22:00,72.7,48.4,29.86,SSE,153,0.0,0.0,42,0.00,,,0.00,meteohub,2013-06-03 19:22:00,
2013-06-03 14:27:00,72.9,49.5,29.86,South,169,0.0,0.0,43,0.00,,,0.00,meteohub,2013-06-03 19:27:00,
2013-06-03 14:32:00,73.0,48.2,29.86,SSE,163,0.0,0.0,41,0.00,,,0.00,meteohub,2013-06-03 19:32:00,
2013-06-03 14:37:00,72.9,48.4,29.83,SE,143,0.0,0.0,42,0.00,,,0.00,meteohub,2013-06-03 19:37:00,
2013-06-03 14:42:00,72.9,48.0,29.83,SSW,194,0.0,0.0,41,0.00,,,0.00,meteohub,2013-06-03 19:42:00,
2013-06-03 14:47:00,72.9,48.6,29.83,SSE,156,0.0,0.0,42,0.00,,,0.00,meteohub,2013-06-03 19:47:00,
2013-06-03 14:52:00,72.9,48.2,29.83,South,189,0.0,0.0,41,0.00,,,0.00,meteohub,2013-06-03 19:52:00,
2013-06-03 14:57:00,73.2,49.1,29.83,SE,125,0.0,0.0,42,0.00,,,0.00,meteohub,2013-06-03 19:57:00,
2013-06-03 15:02:00,73.2,49.5,29.83,SSE,159,0.0,0.0,42,0.00,,,0.00,meteohub,2013-06-03 20:02:00,
2013-06-03 15:07:00,73.4,48.7,29.83,SSE,150,0.0,0.0,41,0.00,,,0.00,meteohub,2013-06-03 20:07:00,
2013-06-03 15:12:00,73.6,48.7,29.83,SSE,163,0.0,0.0,41,0.00,,,0.00,meteohub,2013-06-03 20:12:00,
2013-06-03 15:17:00,73.8,48.9,29.83,SE,132,12.0,0.0,41,0.00,,,0.00,meteohub,2013-06-03 20:17:00,
2013-06-03 15:22:00,73.6,48.6,29.83,SSE,152,5.0,12.0,41,0.00,,,0.00,meteohub,2013-06-03 20:22:00,
2013-06-03 15:27:00,73.6,48.7,29.83,SSE,151,0.0,12.0,41,0.00,,,0.00,meteohub,2013-06-03 20:27:00,
2013-06-03 15:32:00,73.6,49.6,29.83,SSE,155,0.0,12.0,42,0.00,,,0.00,meteohub,2013-06-03 20:32:00,
2013-06-03 15:37:00,73.6,49.6,29.80,SE,127,0.0,12.0,42,0.00,,,0.00,meteohub,2013-06-03 20:37:00,
2013-06-03 15:42:00,73.9,50.7,29.80,SSE,165,0.0,11.0,43,0.00,,,0.00,meteohub,2013-06-03 20:42:00,
2013-06-03 15:47:00,74.3,51.1,29.80,South,184,0.0,11.0,43,0.00,,,0.00,meteohub,2013-06-03 20:47:00,
2013-06-03 15:52:00,74.5,50.4,29.80,SSE,153,0.0,11.0,42,0.00,,,0.00,meteohub,2013-06-03 20:52:00,
2013-06-03 15:57:00,74.3,50.9,29.80,South,176,0.0,11.0,43,0.00,,,0.00,meteohub,2013-06-03 20:57:00,
2013-06-03 16:02:00,74.5,50.4,29.80,SE,146,0.0,11.0,42,0.00,,,0.00,meteohub,2013-06-03 21:02:00,
2013-06-03 16:07:00,74.5,51.1,29.80,SSE,164,0.0,0.0,43,0.00,,,0.00,meteohub,2013-06-03 21:07:00,
2013-06-03 16:12:00,74.3,50.2,29.80,SE,145,0.0,0.0,42,0.00,,,0.00,meteohub,2013-06-03 21:12:00,
2013-06-03 16:17:00,74.3,50.0,29.80,SSE,163,0.0,0.0,42,0.00,,,0.00,meteohub,2013-06-03 21:17:00,
2013-06-03 16:22:00,74.3,50.4,29.80,SSE,167,0.0,0.0,42,0.00,,,0.00,meteohub,2013-06-03 21:22:00,
2013-06-03 16:27:00,74.3,50.4,29.80,SSE,151,0.0,0.0,42,0.00,,,0.00,meteohub,2013-06-03 21:27:00,
2013-06-03 16:32:00,74.3,50.5,29.80,South,179,0.0,0.0,42,0.00,,,0.00,meteohub,2013-06-03 21:32:00,
2013-06-03 16:37:00,74.5,51.1,29.80,SSE,162,0.0,0.0,43,0.00,,,0.00,meteohub,2013-06-03 21:37:00,
2013-06-03 16:42:00,74.5,51.1,29.80,South,181,0.0,0.0,43,0.00,,,0.00,meteohub,2013-06-03 21:42:00,
2013-06-03 16:47:00,74.5,50.4,29.80,South,171,0.0,0.0,42,0.00,,,0.00,meteohub,2013-06-03 21:47:00,
2013-06-03 16:52:00,74.5,50.5,29.80,South,180,0.0,0.0,42,0.00,,,0.00,meteohub,2013-06-03 21:52:00,
2013-06-03 16:57:00,74.5,51.1,29.80,SSE,159,0.0,0.0,43,0.00,,,0.00,meteohub,2013-06-03 21:57:00,
2013-06-03 17:02:00,74.3,51.3,29.80,SSE,157,0.0,0.0,43,0.00,,,0.00,meteohub,2013-06-03 22:02:00,
2013-06-03 17:07:00,74.7,50.5,29.80,SSE,168,0.0,8.0,42,0.00,,,0.00,meteohub,2013-06-03 22:07:00,
2013-06-03 17:12:00,74.7,51.3,29.80,SE,141,0.0,13.0,43,0.00,,,0.00,meteohub,2013-06-03 22:12:00,
2013-06-03 17:17:00,74.7,51.6,29.80,SSE,156,0.0,13.0,44,0.00,,,0.00,meteohub,2013-06-03 22:17:00,
2013-06-03 17:22:00,74.7,52.0,29.80,SSE,167,0.0,2.0,44,0.00,,,0.00,meteohub,2013-06-03 22:22:00,
2013-06-03 17:27:00,74.7,52.2,29.80,SSE,153,0.0,0.0,44,0.00,,,0.00,meteohub,2013-06-03 22:27:00,
2013-06-03 17:32:00,74.7,51.3,29.80,SSE,148,0.0,0.0,43,0.00,,,0.00,meteohub,2013-06-03 22:32:00,
2013-06-03 17:37:00,75.7,51.8,29.77,SE,137,0.0,0.0,44,0.00,,,0.00,meteohub,2013-06-03 22:37:00,
2013-06-03 17:43:00,78.3,52.5,29.77,SSE,158,0.0,0.0,45,0.00,,,0.00,meteohub,2013-06-03 22:43:00,
2013-06-03 17:48:00,79.2,51.8,29.77,SSE,159,0.0,14.0,44,0.00,,,0.00,meteohub,2013-06-03 22:48:00,
2013-06-03 17:53:00,79.0,51.3,29.77,SSE,153,0.0,14.0,43,0.00,,,0.00,meteohub,2013-06-03 22:53:00,
2013-06-03 17:58:00,79.2,51.3,29.77,South,169,0.0,14.0,43,0.00,,,0.00,meteohub,2013-06-03 22:58:00,
2013-06-03 18:03:00,77.4,52.0,29.77,SSE,164,0.0,0.0,44,0.00,,,0.00,meteohub,2013-06-03 23:03:00,
2013-06-03 18:08:00,75.9,51.3,29.77,South,175,0.0,0.0,43,0.00,,,0.00,meteohub,2013-06-03 23:08:00,
2013-06-03 18:13:00,75.2,51.1,29.77,South,173,0.0,0.0,43,0.00,,,0.00,meteohub,2013-06-03 23:13:00,
2013-06-03 18:18:00,74.8,51.6,29.77,South,183,0.0,0.0,44,0.00,,,0.00,meteohub,2013-06-03 23:18:00,
2013-06-03 18:24:00,74.5,51.6,29.77,SSE,167,0.0,0.0,44,0.00,,,0.00,meteohub,2013-06-03 23:24:00,
2013-06-03 18:29:00,74.7,51.6,29.77,South,180,0.0,0.0,44,0.00,,,0.00,meteohub,2013-06-03 23:29:00,
2013-06-03 18:34:00,74.3,51.4,29.77,SSE,148,0.0,0.0,44,0.00,,,0.00,meteohub,2013-06-03 23:34:00,
2013-06-03 18:39:00,74.3,51.4,29.77,SSE,154,0.0,0.0,44,0.00,,,0.00,meteohub,2013-06-03 23:39:00,
2013-06-03 18:44:00,74.3,51.3,29.77,SSE,163,0.0,0.0,44,0.00,,,0.00,meteohub,2013-06-03 23:44:00,
2013-06-03 18:50:00,74.1,51.3,29.77,SE,141,0.0,0.0,44,0.00,,,0.00,meteohub,2013-06-03 23:50:00,
2013-06-03 18:55:00,74.1,51.3,29.77,SE,142,0.0,0.0,44,0.00,,,0.00,meteohub,2013-06-03 23:55:00,
2013-06-03 19:00:00,73.9,51.1,29.77,SSE,151,0.0,0.0,44,0.00,,,0.00,meteohub,2013-06-04 00:00:00,
2013-06-03 19:05:00,73.9,51.1,29.77,SSE,160,0.0,11.0,44,0.00,,,0.00,meteohub,2013-06-04 00:05:00,
2013-06-03 19:10:00,73.8,51.8,29.77,SSE,159,0.0,11.0,45,0.00,,,0.00,meteohub,2013-06-04 00:10:00,
2013-06-03 19:15:00,73.8,50.9,29.77,SSE,157,0.0,11.0,44,0.00,,,0.00,meteohub,2013-06-04 00:15:00,
2013-06-03 19:20:00,73.6,50.9,29.77,SSE,154,0.0,2.0,44,0.00,,,0.00,meteohub,2013-06-04 00:20:00,
2013-06-03 19:26:00,73.4,51.4,29.77,South,181,0.0,2.0,45,0.00,,,0.00,meteohub,2013-06-04 00:26:00,
2013-06-03 19:31:00,73.4,51.4,29.77,SSE,159,11.0,15.0,45,0.00,,,0.00,meteohub,2013-06-04 00:31:00,
2013-06-03 19:36:00,73.4,51.8,29.80,SSE,163,0.0,15.0,46,0.00,,,0.00,meteohub,2013-06-04 00:36:00,
2013-06-03 19:41:00,73.2,51.6,29.80,SSE,158,0.0,15.0,46,0.00,,,0.00,meteohub,2013-06-04 00:41:00,
2013-06-03 19:47:00,73.0,51.6,29.80,SSE,165,0.0,13.0,46,0.00,,,0.00,meteohub,2013-06-04 00:47:00,
2013-06-03 19:52:00,72.9,51.6,29.80,SSE,160,0.0,0.0,46,0.00,,,0.00,meteohub,2013-06-04 00:52:00,
2013-06-03 19:57:00,72.9,52.2,29.80,SSE,153,0.0,0.0,47,0.00,,,0.00,meteohub,2013-06-04 00:57:00,
2013-06-03 20:02:00,72.9,52.0,29.80,SSE,158,0.0,0.0,47,0.00,,,0.00,meteohub,2013-06-04 01:02:00,
2013-06-03 20:07:00,72.7,52.3,29.80,SSE,161,0.0,0.0,48,0.00,,,0.00,meteohub,2013-06-04 01:07:00,
2013-06-03 20:12:00,72.5,52.7,29.80,SSE,155,0.0,0.0,49,0.00,,,0.00,meteohub,2013-06-04 01:12:00,
2013-06-03 20:17:00,72.3,52.2,29.80,South,176,0.0,0.0,48,0.00,,,0.00,meteohub,2013-06-04 01:17:00,
2013-06-03 20:22:00,72.3,52.5,29.80,SE,137,0.0,0.0,49,0.00,,,0.00,meteohub,2013-06-04 01:22:00,
2013-06-03 20:27:00,72.1,52.9,29.80,SSE,153,0.0,0.0,50,0.00,,,0.00,meteohub,2013-06-04 01:27:00,
2013-06-03 20:32:00,72.0,52.3,29.80,SE,141,0.0,0.0,49,0.00,,,0.00,meteohub,2013-06-04 01:32:00,
2013-06-03 20:37:00,71.8,52.2,29.83,SSE,157,0.0,0.0,49,0.00,,,0.00,meteohub,2013-06-04 01:37:00,
2013-06-03 20:42:00,71.4,52.5,29.83,South,181,0.0,2.0,50,0.00,,,0.00,meteohub,2013-06-04 01:42:00,
2013-06-03 20:47:00,71.4,52.3,29.83,SSE,149,0.0,2.0,50,0.00,,,0.00,meteohub,2013-06-04 01:47:00,
2013-06-03 20:52:00,71.2,52.2,29.83,SSE,162,0.0,2.0,50,0.00,,,0.00,meteohub,2013-06-04 01:52:00,
2013-06-03 20:57:00,71.1,52.5,29.83,SSE,160,0.0,0.0,51,0.00,,,0.00,meteohub,2013-06-04 01:57:00,
2013-06-03 21:02:00,70.9,52.3,29.83,SSE,154,0.0,0.0,51,0.00,,,0.00,meteohub,2013-06-04 02:02:00,
2013-06-03 21:07:00,70.9,52.9,29.80,SSE,153,0.0,0.0,52,0.00,,,0.00,meteohub,2013-06-04 02:07:00,
2013-06-03 21:12:00,70.7,53.2,29.80,SE,142,0.0,0.0,53,0.00,,,0.00,meteohub,2013-06-04 02:12:00,
2013-06-03 21:17:00,70.5,53.1,29.80,SSE,158,0.0,0.0,53,0.00,,,0.00,meteohub,2013-06-04 02:17:00,
2013-06-03 21:22:00,70.3,54.0,29.80,SSE,150,0.0,0.0,55,0.00,,,0.00,meteohub,2013-06-04 02:22:00,
2013-06-03 21:27:00,70.2,53.8,29.80,SSE,161,0.0,0.0,55,0.00,,,0.00,meteohub,2013-06-04 02:27:00,
2013-06-03 21:32:00,70.0,53.6,29.80,SSE,155,0.0,0.0,55,0.00,,,0.00,meteohub,2013-06-04 02:32:00,
2013-06-03 21:37:00,69.8,54.0,29.80,SSE,163,0.0,0.0,56,0.00,,,0.00,meteohub,2013-06-04 02:37:00,
2013-06-03 21:42:00,69.8,54.0,29.80,South,177,0.0,0.0,56,0.00,,,0.00,meteohub,2013-06-04 02:42:00,
2013-06-03 21:47:00,69.6,54.0,29.80,SSE,147,0.0,0.0,56,0.00,,,0.00,meteohub,2013-06-04 02:47:00,
2013-06-03 21:53:00,69.6,54.1,29.80,SSE,155,0.0,0.0,57,0.00,,,0.00,meteohub,2013-06-04 02:53:00,
2013-06-03 21:58:00,69.6,55.0,29.80,SSE,160,0.0,0.0,59,0.00,,,0.00,meteohub,2013-06-04 02:58:00,
2013-06-03 22:03:00,69.4,54.9,29.80,SE,144,0.0,0.0,59,0.00,,,0.00,meteohub,2013-06-04 03:03:00,
2013-06-03 22:08:00,69.3,54.9,29.83,SSE,160,0.0,0.0,59,0.00,,,0.00,meteohub,2013-06-04 03:08:00,
2013-06-03 22:13:00,69.3,55.0,29.83,SSE,156,0.0,0.0,60,0.00,,,0.00,meteohub,2013-06-04 03:13:00,
2013-06-03 22:18:00,69.1,54.7,29.83,SSE,160,0.0,0.0,59,0.00,,,0.00,meteohub,2013-06-04 03:18:00,
2013-06-03 22:23:00,68.9,55.4,29.80,SSE,150,0.0,0.0,61,0.00,,,0.00,meteohub,2013-06-04 03:23:00,
2013-06-03 22:28:00,68.9,55.4,29.80,SSE,151,0.0,0.0,61,0.00,,,0.00,meteohub,2013-06-04 03:28:00,
2013-06-03 22:33:00,68.7,55.2,29.80,SSE,164,13.0,0.0,61,0.00,,,0.00,meteohub,2013-06-04 03:33:00,
2013-06-03 22:39:00,68.7,55.0,29.80,SSE,147,0.0,7.0,61,0.00,,,0.00,meteohub,2013-06-04 03:39:00,
2013-06-03 22:44:00,68.5,55.0,29.80,SSE,162,0.0,13.0,61,0.00,,,0.00,meteohub,2013-06-04 03:44:00,
2013-06-03 22:49:00,68.5,55.4,29.80,SSE,147,0.0,13.0,62,0.00,,,0.00,meteohub,2013-06-04 03:49:00,
2013-06-03 22:54:00,68.4,55.8,29.80,SSE,162,0.0,12.0,63,0.00,,,0.00,meteohub,2013-06-04 03:54:00,
2013-06-03 22:59:00,68.4,56.3,29.80,SSE,159,0.0,0.0,64,0.00,,,0.00,meteohub,2013-06-04 03:59:00,
2013-06-03 23:01:00,68.4,55.8,29.80,SE,135,0.0,0.0,63,0.00,,,0.00,meteohub,2013-06-04 04:01:00,
2013-06-03 23:02:00,68.4,55.8,29.80,SSE,161,0.0,0.0,63,0.00,,,0.00,meteohub,2013-06-04 04:02:00,
2013-06-03 23:05:00,68.2,55.6,29.83,SSE,163,0.0,0.0,63,0.00,,,0.00,meteohub,2013-06-04 04:05:00,
2013-06-03 23:06:00,68.4,55.6,29.83,SSE,157,0.0,0.0,63,0.00,,,0.00,meteohub,2013-06-04 04:06:00,
2013-06-03 23:11:00,68.2,55.9,29.83,SE,146,0.0,0.0,64,0.00,,,0.00,meteohub,2013-06-04 04:11:00,
2013-06-03 23:16:00,68.0,55.9,29.83,South,169,0.0,0.0,64,0.00,,,0.00,meteohub,2013-06-04 04:16:00,
2013-06-03 23:21:00,67.8,56.1,29.83,South,190,0.0,0.0,65,0.00,,,0.00,meteohub,2013-06-04 04:21:00,
2013-06-03 23:27:00,67.6,55.2,29.83,SSE,155,0.0,3.0,63,0.00,,,0.00,meteohub,2013-06-04 04:27:00,
2013-06-03 23:32:00,67.6,55.0,29.83,SSE,158,0.0,3.0,63,0.00,,,0.00,meteohub,2013-06-04 04:32:00,
2013-06-03 23:37:00,67.6,55.0,29.83,SE,146,0.0,3.0,63,0.00,,,0.00,meteohub,2013-06-04 04:37:00,
2013-06-03 23:42:00,67.5,54.9,29.83,South,184,0.0,0.0,63,0.00,,,0.00,meteohub,2013-06-04 04:42:00,
2013-06-03 23:47:00,67.5,55.4,29.83,SSE,163,0.0,0.0,64,0.00,,,0.00,meteohub,2013-06-04 04:47:00,
2013-06-03 23:52:00,67.5,55.4,29.86,SSE,162,0.0,0.0,64,0.00,,,0.00,meteohub,2013-06-04 04:52:00,
2013-06-03 23:57:00,67.5,55.6,29.86,South,172,0.0,0.0,65,0.00,,,0.00,meteohub,2013-06-04 04:57:00,